EW1675 Weather Reports


time (UTC)temp
F
wind
direction
speed
knots
gust
knots
rain 1hr
in
rain 24hr
in
rain mn
in
humidity
%
barometer
mb
20260508153002 68 27 1.7 6.1 0.00 0.00 0.00 41 1015.3
20260508152046 68 150 0.9 4.3 0.00 0.00 0.00 42 1015.4
20260508151003 67 146 0.9 6.1 0.00 0.00 0.00 40 1015.7
20260508150024 67 103 0.9 4.3 0.00 0.00 0.00 43 1015.7
20260508145024 67 148 0.9 5.2 0.00 0.00 0.00 44 1015.8
20260508144106 66 164 0.9 3.5 0.00 0.00 0.00 43 1015.9
20260508143002 65 144 0.9 6.1 0.00 0.00 0.00 43 1015.9
20260508142003 64 143 1.7 4.3 0.00 0.00 0.00 42 1015.8
20260508141046 63 34 0.9 3.5 0.00 0.00 0.00 48 1015.9
20260508140003 63 59 0.9 4.3 0.00 0.00 0.00 41 1015.9
20260508135024 62 109 0.9 3.5 0.00 0.00 0.00 42 1016.0
20260508134003 61 148 0.9 4.3 0.00 0.00 0.00 49 1016.1
20260508133045 60 130 0.9 2.6 0.00 0.00 0.00 52 1016.2
20260508132003 59 70 0.9 4.3 0.00 0.00 0.00 51 1016.2
20260508131003 57 150 0.9 3.5 0.00 0.00 0.00 57 1016.3
20260508130024 55 157 0.0 1.7 0.00 0.00 0.00 66 1016.4
20260508125003 53 162 0.0 2.6 0.00 0.00 0.00 70 1016.4
20260508124003 51 154 0.0 3.5 0.00 0.00 0.00 75 1016.4
20260508123003 49 355 0.0 1.7 0.00 0.00 0.00 78 1016.4
20260508122003 46 0 0.0 0.0 0.00 0.00 0.00 82 1016.4
20260508121003 45 0 0.0 0.0 0.00 0.00 0.00 86 1016.3
20260508120004 44 0 0.0 0.0 0.00 0.00 0.00 87 1016.3
20260508115003 43 0 0.0 0.0 0.00 0.00 0.00 87 1016.1
20260508114024 43 0 0.0 0.0 0.00 0.00 0.00 87 1016.1
20260508113106 42 0 0.0 0.0 0.00 0.00 0.00 86 1015.9
20260508112003 42 0 0.0 0.0 0.00 0.00 0.00 85 1015.8
20260508111106 42 0 0.0 0.0 0.00 0.00 0.00 85 1015.5
20260508110001 42 0 0.0 0.0 0.00 0.00 0.00 83 1015.4
20260508105001 42 0 0.0 0.0 0.00 0.00 0.00 83 1015.2
20260508104022 42 0 0.0 0.0 0.00 0.00 0.00 82 1015.1
20260508103022 42 0 0.0 0.0 0.00 0.00 0.00 81 1015.0
20260508102001 43 0 0.0 0.0 0.00 0.00 0.00 80 1015.0
20260508101001 43 0 0.0 0.0 0.00 0.00 0.00 79 1014.9
20260508100022 44 0 0.0 0.0 0.00 0.00 0.00 77 1014.7
20260508095001 45 0 0.0 0.0 0.00 0.00 0.00 76 1014.6
20260508094022 45 0 0.0 0.0 0.00 0.00 0.00 75 1014.6
20260508093022 46 0 0.0 0.0 0.00 0.00 0.00 73 1014.6
20260508092002 47 0 0.0 0.0 0.00 0.00 0.00 72 1014.7
20260508091022 47 0 0.0 0.0 0.00 0.00 0.00 71 1014.7
20260508090001 48 0 0.0 0.0 0.00 0.00 0.00 68 1014.7
20260508085001 49 0 0.0 0.0 0.00 0.00 0.00 67 1014.5
20260508084002 49 0 0.0 0.0 0.00 0.00 0.00 65 1014.4
20260508083001 50 0 0.0 0.0 0.00 0.00 0.00 64 1014.4
20260508082002 50 0 0.0 0.0 0.00 0.00 0.00 63 1014.3
20260508081001 51 349 0.0 1.7 0.00 0.00 0.00 62 1014.1
20260508080043 51 339 0.9 3.5 0.00 0.00 0.00 62 1013.9
20260508075022 52 352 0.9 1.7 0.00 0.00 0.00 61 1013.8
20260508074001 52 349 0.9 4.3 0.00 0.00 0.00 60 1013.7
20260508073002 52 360 0.9 4.3 0.00 0.00 0.00 60 1013.6
20260508072001 53 341 0.9 3.5 0.00 0.00 0.00 60 1013.3
20260508071022 53 3 0.9 4.3 0.00 0.00 0.00 60 1013.2
20260508070023 53 12 1.7 4.3 0.00 0.00 0.00 60 1013.2
20260508065001 53 338 0.9 3.5 0.00 0.00 0.00 60 1013.0
20260508064001 53 352 1.7 5.2 0.00 0.00 0.00 61 1012.8
20260508063001 52 4 1.7 7.0 0.00 0.00 0.00 64 1012.7
20260508062001 49 12 1.7 7.8 0.00 0.00 0.00 71 1012.6
20260508061043 47 9 0.9 7.0 0.00 0.00 0.00 84 1012.5
20260508060022 47 124 0.0 0.9 0.00 0.00 0.00 88 1012.5
20260508055001 47 0 0.0 0.0 0.00 0.00 0.00 89 1012.5
20260508054001 47 0 0.0 0.0 0.00 0.00 0.00 88 1012.6
20260508053001 48 132 0.0 0.9 0.00 0.00 0.00 88 1012.6
20260508052043 48 132 0.0 0.9 0.00 0.01 0.00 88 1012.6
20260508051001 48 0 0.0 0.0 0.00 0.01 0.00 87 1012.5
20260508050002 49 0 0.0 0.0 0.00 0.01 0.00 87 1012.5
20260508045002 49 0 0.0 0.0 0.00 0.01 0.00 86 1012.4
20260508044001 49 0 0.0 0.0 0.00 0.01 0.00 86 1012.3
20260508043023 49 0 0.0 0.0 0.00 0.01 0.00 86 1012.2
20260508042022 50 0 0.0 0.0 0.00 0.02 0.00 86 1012.1
20260508041022 50 133 0.0 0.9 0.00 0.06 0.00 86 1012.0
20260508040023 50 134 0.0 0.9 0.00 0.06 0.00 85 1011.9
20260508035001 50 0 0.0 0.0 0.00 0.06 0.06 85 1011.8
20260508034001 50 134 0.0 0.9 0.00 0.06 0.06 84 1011.7
20260508033044 51 0 0.0 0.0 0.00 0.06 0.06 83 1011.7
20260508032022 51 134 0.0 0.9 0.00 0.06 0.06 83 1011.7
20260508031022 51 0 0.0 0.0 0.00 0.06 0.06 83 1011.6
20260508030023 51 133 0.0 1.7 0.00 0.06 0.06 83 1011.6
20260508025022 52 132 0.0 0.9 0.00 0.06 0.06 82 1011.7
20260508024105 52 133 0.0 1.7 0.00 0.06 0.06 81 1011.6
20260508023002 52 0 0.0 0.0 0.00 0.06 0.06 79 1011.6
20260508022002 52 132 0.0 0.9 0.00 0.06 0.06 79 1011.5
20260508021002 53 133 0.0 0.9 0.00 0.06 0.06 78 1011.5
20260508020001 53 133 0.0 0.9 0.00 0.06 0.06 78 1011.4
20260508015023 53 134 0.0 0.9 0.00 0.06 0.06 77 1011.4
20260508014023 54 124 0.0 1.7 0.00 0.06 0.06 77 1011.3
20260508013001 54 142 0.0 1.7 0.00 0.06 0.06 76 1011.1
20260508012044 54 163 0.0 1.7 0.00 0.06 0.06 76 1011.0
20260508011022 55 163 0.0 1.7 0.00 0.06 0.06 75 1010.9
20260508010023 55 162 0.0 3.5 0.00 0.06 0.06 74 1010.9
20260508005023 56 162 0.9 4.3 0.00 0.06 0.06 74 1010.6
20260508004002 56 165 0.9 5.2 0.00 0.06 0.06 73 1010.5
20260508003045 56 177 0.9 2.6 0.00 0.06 0.06 72 1010.4
20260508002001 57 168 0.0 3.5 0.00 0.06 0.06 71 1010.3
20260508001023 57 164 0.9 3.5 0.00 0.06 0.06 70 1010.3
20260508000045 58 165 0.9 4.3 0.00 0.06 0.06 69 1010.1
20260507235002 58 162 0.9 3.5 0.00 0.06 0.06 68 1009.8
20260507234002 59 156 0.9 5.2 0.00 0.06 0.06 67 1009.8
20260507233023 59 162 0.9 5.2 0.00 0.06 0.06 66 1009.6
20260507232002 60 153 0.9 7.0 0.00 0.06 0.06 66 1009.5
20260507231002 60 157 0.9 5.2 0.00 0.06 0.06 65 1009.4
20260507230002 61 154 0.9 4.3 0.00 0.06 0.06 62 1009.3
20260507225024 61 160 1.7 6.1 0.00 0.06 0.06 61 1009.2
20260507224044 61 143 1.7 7.0 0.00 0.06 0.06 62 1009.1
20260507223002 61 125 1.7 5.2 0.00 0.06 0.06 61 1009.1
20260507222003 61 122 1.7 6.1 0.00 0.06 0.06 61 1008.9
20260507221002 62 120 1.7 6.1 0.00 0.06 0.06 61 1008.9
20260507220002 62 122 1.7 5.2 0.00 0.06 0.06 61 1008.9
20260507215002 62 104 1.7 7.0 0.00 0.06 0.06 59 1008.8
20260507214002 62 135 0.9 4.3 0.00 0.06 0.06 61 1008.9
20260507213002 62 159 0.9 7.0 0.00 0.06 0.06 59 1009.0
20260507212002 62 166 0.9 4.3 0.00 0.06 0.06 60 1009.0
20260507211044 62 146 0.9 5.2 0.00 0.06 0.06 60 1009.0
20260507210023 62 135 1.7 7.0 0.00 0.06 0.06 60 1009.0
20260507205023 62 137 1.7 7.8 0.00 0.06 0.06 59 1009.0
20260507204002 63 168 2.6 7.8 0.00 0.06 0.06 58 1009.0
20260507203002 64 150 1.7 7.8 0.00 0.06 0.06 58 1009.1
20260507202002 64 145 1.7 7.8 0.00 0.06 0.06 58 1008.9
20260507201023 64 136 1.7 6.1 0.00 0.06 0.06 56 1008.9
20260507200044 64 122 1.7 7.0 0.00 0.06 0.06 55 1009.1
20260507195002 64 153 1.7 7.0 0.00 0.06 0.06 56 1009.1
20260507194002 64 133 2.6 7.0 0.00 0.06 0.06 53 1009.0
20260507193024 65 138 1.7 5.2 0.00 0.06 0.06 57 1009.0
20260507192044 64 111 2.6 9.6 0.00 0.06 0.06 53 1009.2
20260507191024 66 123 1.7 8.7 0.00 0.06 0.06 52 1009.5
20260507190003 66 133 1.7 7.8 0.00 0.06 0.06 51 1009.6
20260507185044 66 143 2.6 7.8 0.00 0.06 0.06 53 1009.6
20260507184002 67 140 0.9 5.2 0.00 0.06 0.06 55 1009.9
20260507183003 66 103 0.9 3.5 0.00 0.06 0.06 48 1009.9
20260507182003 66 110 0.9 2.6 0.00 0.06 0.06 50 1010.0
20260507181044 65 117 0.9 2.6 0.00 0.06 0.06 54 1010.2
20260507180044 64 87 0.9 3.5 0.00 0.06 0.06 49 1010.4
20260507175003 64 138 0.9 2.6 0.00 0.06 0.06 52 1010.4
20260507174002 63 177 0.9 4.3 0.00 0.06 0.06 51 1010.5
20260507173002 63 142 0.9 4.3 0.00 0.06 0.06 54 1010.6
20260507172044 61 148 0.9 2.6 0.00 0.06 0.06 50 1010.9
20260507171002 60 140 0.0 1.7 0.00 0.06 0.06 54 1011.3
20260507170002 60 154 0.0 1.7 0.00 0.06 0.06 52 1011.4
20260507165002 60 161 0.0 2.6 0.00 0.06 0.06 53 1011.5
20260507164024 60 192 0.0 1.7 0.00 0.06 0.06 53 1011.8
20260507163002 60 326 0.9 3.5 0.00 0.06 0.06 51 1011.5
20260507162024 59 327 1.7 6.1 0.00 0.06 0.06 53 1011.8
20260507161023 58 255 0.0 2.6 0.00 0.06 0.06 55 1011.9
20260507160002 58 317 0.9 3.5 0.00 0.06 0.06 54 1012.1
20260507155003 58 326 0.9 4.3 0.00 0.06 0.06 57 1012.1
20260507154024 57 326 0.0 3.5 0.00 0.06 0.06 58 1012.1